星链-4176 (STARLINK-4176 )

导读 | 豆包AI

STARLINK-4176是美国SpaceX公司于2022年7月24日发射的星链(Starlink)卫星,归属星链低轨互联网卫星星座。星链项目旨在通过批量部署近地轨道小卫星,为全球提供高速低延迟宽带互联网服务,特别填补偏远、基础设施匮乏地区的网络覆盖空白,STARLINK-4176也为星座全球组网服务能力的扩展贡献力量。

基本信息
目录编号:
53289
目录名称:
STARLINK-4176
国际标识:
2022-086AZ
轨道中心:
EARTH
卫星名称:
星链-4176
卫星全名:
星链-4176 (STARLINK-4176 )
卫星状态:
在轨 (已飞行1330 天)
发射日期:
2022-07-24 UTC
国别 :
美国 (US)
星等 :
--
轨道信息
数据来源 国际轨道数据
星历时间: 2026-03-15T06:15:30+0800
8小时前
查看轨道信息
半长轴: 6917.877km
偏心率: 0.0001214
轨道倾角: 53.217°
近地点辐角 96.962°
升交点赤经 155.751°
平近点角 263.151°
近地点: 538.9km
远地点: 540.58km
周期: 95.437分钟
每日圈数: 15.088414
详细信息
固有亮度:
5
最大亮度:
2.5
卫星平台:
Starlink v1.5
覆盖范围:
全球
运营商:
太空探索技术公司
运营商所在国:
美国
制造商(研发单位):
太空探索技术公司
制造商所在国:
美国
使用方式:
暂无
卫星简介
星链(Starlink)计划是由太空探索技术公司(SpaceX)提出的一个巨型低轨卫星互联网星座项目,计划在2019年至2024年间在太空搭建由约1.2万颗卫星组成的“星链”网络,其中1584颗将部署在地球上空550千米处的近地轨道,并从2020年开始工作。该卫星仍在工作。
2D轨道图
3D轨道图
轨道高度分析图
轨道倾角分析图
轨道综合分析图
查看轨道综合分析图